Location: Oregon Trail
(41.1872°N, 102.0741°W)
Time: 02:44:09
(UTC+00:00)

Cosmos 1805 Rocket - Pass Details

Date: 19 November 2019
Orbit: 606 x 629 km, 82.5° (Epoch: 13 December)

Event Time Altitude Azimuth Distance (km) Brightness Sun altitude
Rises 13:08:46 0° 193° (SSW) 2,858 7.1 -6.4°
Reaches altitude 10° 13:10:59 10° 196° (SSW) 1,956 6.2 -6.0°
Maximum altitude 13:15:17 66° 279° (W) 665 3.5 -5.2°
Drops below altitude 10° 13:19:36 10° 2° (N) 1,965 5.9 -4.5°
Sets 13:21:51 0° 5° (N) 2,873 6.8 -4.1°
